Weather History for State College, PA

Change the Weather History Date:

Wednesday, May 21, 2014

  Actual Average Record
Temperature  
Mean Temperature 58 °F -  
Max Temperature 64 °F 73 °F 91 °F (1934)
Min Temperature 51 °F 51 °F 28 °F (2002)
Degree Days  
Heating Degree Days 8    
Growing Degree Days 8 (Base 50)    
Moisture  
Dew Point 55 °F    
Average Humidity 96    
Maximum Humidity 100    
Minimum Humidity 88    
Precipitation  
Precipitation 0.13 in - - ()
Sea Level Pressure  
Sea Level Pressure 29.97 in    
Wind  
Wind Speed 3 mph (WSW)    
Max Wind Speed 9 mph    
Max Gust Speed -    
Visibility 5 miles    
Events Rain , Thunderstorm    
Averages and records for this station are not official NWS values.
T = Trace of Precipitation, MM = Missing Value Source: NWS Daily Summary

Daily Weather History Graph

Daily Weather History Graph

Search for Another Location

Airport:

Trip Planner

Search our weather history database for the weather conditions in past years. The results will help you decide how hot, cold, wet, or windy it might be!

Date:

Astronomy

May. 21, 2014 Rise Set
Actual Time 5:48 AM EDT 8:27 PM EDT
Civil Twilight 5:16 AM EDT 8:59 PM EDT
Nautical Twilight 4:37 AM EDT 9:39 PM EDT
Astronomical Twilight 3:52 AM EDT 10:24 PM EDT
Moon 1:33 AM EDT (5/21) 1:03 PM EDT (5/21)
Length of Visible Light 15h 42m
Length of Day
14h 38m
Waning Gibbous, 49% of the Moon is Illuminated
May 21
Waning Gibbous
May 28
New
Jun 5
First Quarter
Jun 13
Full
Jun 19
Last Quarter

Hourly Weather History & Observations

Time (EDT) Temp. Dew Point Humidity Pressure Visibility Wind Dir Wind Speed Gust Speed Precip Events Conditions
12:15 AM 52.9 °F 51.1 °F 94% 30.02 in 7.0 mi SE 3.5 mph - 0.03 in Rain Light Rain
12:35 AM 52.9 °F 51.8 °F 96% 30.03 in 7.0 mi NNW 5.8 mph - 0.03 in   Mostly Cloudy
12:55 AM 52.3 °F 51.4 °F 97% 30.03 in 5.0 mi NNE 8.1 mph - N/A   Overcast
1:15 AM 52.2 °F 51.3 °F 97% 30.02 in 7.0 mi North 4.6 mph - N/A   Overcast
1:35 AM 52.2 °F 51.3 °F 97% 30.01 in 7.0 mi Calm Calm - N/A   Overcast
1:55 AM 52.7 °F 51.3 °F 95% 30.00 in 7.0 mi Calm Calm - N/A   Overcast
2:15 AM 52.7 °F 51.4 °F 95% 30.00 in 7.0 mi Calm Calm - N/A Rain Light Rain
2:35 AM 52.7 °F 51.4 °F 95% 30.00 in 7.0 mi WNW 3.5 mph - N/A   Overcast
2:55 AM 52.7 °F 51.1 °F 94% 30.00 in 7.0 mi Calm Calm - N/A   Overcast
3:15 AM 51.8 °F 51.3 °F 98% 29.99 in 2.0 mi Calm Calm - N/A   Mostly Cloudy
3:35 AM 52.3 °F 51.8 °F 98% 29.99 in 4.0 mi Calm Calm - 0.01 in Thunderstorm Unknown
3:55 AM 52.7 °F 51.4 °F 95% 29.99 in 5.0 mi Calm Calm - N/A Rain , Thunderstorm Light Thunderstorms and Rain
4:15 AM 52.7 °F 51.3 °F 95% 29.98 in 5.0 mi Calm Calm - 0.02 in Rain , Thunderstorm Rain
4:35 AM 52.5 °F 51.3 °F 95% 30.00 in 5.0 mi Calm Calm - 0.05 in Rain , Thunderstorm Thunderstorms and Rain
4:55 AM 52.0 °F 51.4 °F 98% 30.00 in 2.0 mi SE 3.5 mph - N/A Rain , Thunderstorm Heavy Thunderstorms and Rain
5:15 AM 51.8 °F 51.6 °F 99% 29.99 in 1.8 mi SSE 4.6 mph - 0.05 in Rain , Thunderstorm Thunderstorms and Rain
5:35 AM 51.8 °F 51.6 °F 99% 29.98 in 1.8 mi Calm Calm - 0.07 in Rain , Thunderstorm Rain
5:53 AM 51.8 °F 51.8 °F 100% 30.02 in 1.0 mi Calm Calm - N/A Rain , Thunderstorm Thunderstorms and Rain
6:18 AM 51.8 °F 51.8 °F 100% 29.99 in 2.0 mi South 5.8 mph - N/A Rain Light Rain
6:40 AM 51.8 °F 51.8 °F 100% 30.00 in 2.0 mi SW 4.6 mph - N/A Rain Rain
7:15 AM 51.8 °F 51.8 °F 100% 29.98 in 2.0 mi SW 8.1 mph - N/A Rain , Thunderstorm Thunderstorms and Rain
7:43 AM 51.8 °F 51.8 °F 100% 30.00 in 3.0 mi WSW 9.2 mph - N/A Rain , Thunderstorm Thunderstorms and Rain
8:53 AM 53.6 °F 53.6 °F 100% 30.00 in 3.0 mi SW 6.9 mph - N/A Rain , Thunderstorm Thunderstorms and Rain
9:25 AM 55.4 °F 53.6 °F 94% 30.01 in 3.0 mi SW 6.9 mph - N/A Rain Heavy Rain
9:53 AM 55.4 °F 55.4 °F 100% 30.02 in 3.0 mi West 8.1 mph - N/A Rain , Thunderstorm Heavy Thunderstorms and Rain
10:23 AM 55.4 °F 55.4 °F 100% 30.00 in 3.0 mi West 8.1 mph - N/A Rain Rain
10:53 AM 55.4 °F 55.4 °F 100% 30.01 in 4.0 mi West 5.8 mph - N/A Rain Rain
11:53 AM 57.2 °F 57.2 °F 100% 30.00 in 2.0 mi WSW 8.1 mph - N/A Rain Rain
11:54 AM 57.2 °F 57.2 °F 100% 30.00 in 3.0 mi WSW 8.1 mph - N/A Rain Rain
12:53 PM 59.0 °F 57.2 °F 94% 29.98 in 6.0 mi WSW 9.2 mph - N/A Rain Light Rain
1:53 PM 60.8 °F 59.0 °F 94% 29.97 in 7.0 mi WSW 5.8 mph - N/A Rain Light Rain
2:53 PM 60.8 °F 59.0 °F 94% 29.95 in 7.0 mi Calm Calm - N/A Rain Light Rain
2:54 PM 60.8 °F 59.0 °F 94% 29.95 in 7.0 mi Calm Calm - N/A Rain Light Rain
3:53 PM 62.6 °F 59.0 °F 88% 29.93 in 10.0 mi Calm Calm - N/A   Mostly Cloudy
4:53 PM 62.6 °F 60.8 °F 94% 29.92 in 10.0 mi Calm Calm - N/A   Overcast
5:53 PM 64.4 °F 60.8 °F 88% 29.92 in 7.0 mi Calm Calm - N/A   Overcast
6:53 PM 64.4 °F 60.8 °F 88% 29.92 in 7.0 mi SSW 6.9 mph - N/A   Scattered Clouds
7:53 PM 64.4 °F 60.8 °F 88% 29.91 in 7.0 mi Calm Calm - N/A   Scattered Clouds
8:53 PM 60.8 °F 59.0 °F 94% 29.92 in 7.0 mi Calm Calm - N/A   Scattered Clouds
9:55 PM 59.0 °F 58.1 °F 97% 29.90 in 5.0 mi Calm Calm - N/A   Scattered Clouds
10:15 PM 59.9 °F 59.0 °F 97% 29.90 in 10.0 mi Calm Calm - N/A   Clear
10:35 PM 59.0 °F 58.3 °F 97% 29.89 in 7.0 mi Calm Calm - N/A   Clear
10:55 PM 58.5 °F 57.9 °F 98% 29.88 in 1.5 mi Calm Calm - N/A   Mist
11:15 PM 59.0 °F 58.3 °F 97% 29.88 in 7.0 mi West 3.5 mph - N/A   Clear
11:35 PM 59.0 °F 58.5 °F 98% 29.87 in 4.0 mi West 3.5 mph - N/A   Clear
11:55 PM 59.7 °F 59.0 °F 97% 29.88 in 7.0 mi West 3.5 mph - N/A   Mostly Cloudy